OBJECT N, 57178

Orbit data source: Space-Track

You're viewing an Uncataloged Satellite

Recently launched and/or uncataloged satellites may have evolving metadata. Metadata may include but not limited to: Owner, Maufacturer, Bus, Motor, and Mission.

OBJECT N, 57178 is a satellite in SSO that was launched on Tue, 27 Jun 2023 UTC via a SOYUZ-2-1B launch vehicle from the Vostochny Cosmodrome (VOSTO). Unknown objects in Earth's orbit typically refer to objects detected orbiting the Earth but have not yet been identified or cataloged. These objects could be anything from previously untracked satellites, spent rocket stages, debris from satellite collisions, or even natural meteoroids temporarily captured by Earth's gravity.

Loading next visibility...
Identifier
57178, 2023-091N
Orbit
SSO
Country
Flag of TBDTBD
Related business
Flag of RUNational Research University Higher School of Economics (RU)
Manufacturer
Sputniks
Mission
Operational Amateur Imaging/Com
Bus & Motor
CUBESAT 3U, Unknown motor
Mass
3.39 kg wet, 3.39 kg dry
Launch date (UTC)
2023-06-27 (3 years ago)
Launch vehicle
SOYUZ-2-1B
Launch site
Vostochny Cosmodrome (VOSTO)
Object type
Unknown
Shape & HBR
Box, 0.2 m
Radar Cross Section
0.035 m², Medium (>0.1 m² and < 1m²)

Expand to show TLE details & history
Last TLE update: 14 hours ago

TLE from 14 hours ago
0 OBJECT N
1 57178U 23091N   26206.58787152  .00013158  00000-0  42637-3 0  9995
2 57178  97.5075 272.6795 0008788 321.3778  38.6834 15.32100104170303
Epoch: 2026-07-25T14:06Z
TLE epoch observation values (Epoch: 2026-07-25T14:06:32.099Z)
Latitude
-0.00001°
Longitude
117.74775°
Altitude
467.955 km
Speed
7.635 km/s
True Right ascension
18h 10m 43s
True Declination
0° 00' 00"
Sunlit
Object was in full shadow at epoch
Visualization orbit readout
Latitude
Unknown
Longitude
Unknown
Altitude
Unknown
Speed
Unknown
Apparent Right ascension
Unknown
Apparent Declination
Unknown
Sunlit
N/A
Visualization observer readout
Local Sidereal Time
17:02:25
Azimuth
Unknown
Elevation
Unknown
Doppler factor
Unknown
Orbital elements
Apogee altitude
472.517 km
Perigee altitude
460.487 km
Semi-major axis
6,844.639 km
Eccentricity
0.00088
Inclination
97.5075°
RAAN
272.6795°
Arg. of periapsis
321.3778°
True anomaly
38.7464°
Mean anomaly
38.6834°
Eccentric anomaly
38.71489°
Mean motion
3.83281 °/min
Orbital period
93.93 mins
BSTAR
0.00042637
Loading maneuver chart data...
Computing Atmospheric mass density...
Loading historical data...
Loading historical data...
Loading historical data...
Loading historical data...
Loading historical data...
Loading historical data...
Loading historical data...

Documentation

Showing up to 5 results
|